Location: Dilsberg
(49.3983°N, 8.8354°E)
Time: 10:41:49
(UTC+00:00)

Cosmos 2184 Rocket - Pass Details

Date: 19 May 2025
Orbit: 959 x 1000 km, 82.9° (Epoch: 23 June)

Event Time Altitude Azimuth Distance (km) Brightness Sun altitude
Rises 19:52:28 0° 349° (N) 3,676 8.0 -6.7°
Reaches altitude 10° 19:54:59 10° 348° (NNW) 2,730 7.3 -7.0°
Maximum altitude 20:01:13 75° 265° (W) 1,017 4.3 -7.7°
Drops below altitude 10° 20:07:29 10° 180° (S) 2,740 6.0 -8.4°
Sets 20:10:00 0° 179° (S) 3,690 6.6 -8.7°
